KF7MJQ-10 Weather Reports


Display with metric or nautical units.
time (UTC)temp
F
wind
direction
speed
MPH
gust
MPH
rain 1hr
in
rain 24hr
in
rain mn
in
humidity
%
barometer
mb
20260502202504 61 259 0.0 2.0 0.00 0.00 0.00 1 1015.6
20260502202004 62 273 0.0 3.0 0.00 0.00 0.00 1 1015.7
20260502201613 62 255 0.0 3.0 0.00 0.00 0.00 1 1015.7
20260502201042 62 246 0.0 3.0 0.00 0.00 0.00 1 1015.7
20260502200542 61 271 0.0 4.0 0.00 0.00 0.00 1 1015.7
20260502200039 62 233 1.0 4.0 0.00 0.00 0.00 1 1015.7
20260502195537 63 269 0.0 5.0 0.00 0.00 0.00 4 1015.7
20260502195038 62 288 0.0 5.0 0.00 0.00 0.00 1 1015.8
20260502194537 62 248 0.0 3.0 0.00 0.00 0.00 1 1015.8
20260502194015 62 316 0.0 2.0 0.00 0.00 0.00 1 1015.9
20260502193515 61 308 0.0 4.0 0.00 0.00 0.00 1 1015.9
20260502193013 62 219 2.0 4.0 0.00 0.00 0.00 1 1015.9
20260502192512 61 205 0.0 2.0 0.00 0.00 0.00 1 1016.0
20260502192010 61 286 0.0 5.0 0.00 0.00 0.00 1 1015.9
20260502191508 61 345 0.0 5.0 0.00 0.00 0.00 1 1015.8
20260502191110 61 224 0.0 3.0 0.00 0.00 0.00 1 1015.8
20260502190548 60 217 0.0 5.0 0.00 0.00 0.00 1 1016.0
20260502190048 61 236 0.0 4.0 0.00 0.00 0.00 1 1016.0
20260502185545 60 298 0.0 3.0 0.00 0.00 0.00 1 1016.0
20260502185045 60 239 1.0 3.0 0.00 0.00 0.00 1 1016.0
20260502184558 59 248 0.0 3.0 0.00 0.00 0.00 1 1016.1
20260502184041 59 238 0.0 4.0 0.00 0.00 0.00 1 1016.1
20260502183522 60 238 1.0 4.0 0.00 0.00 0.00 1 1016.2
20260502183021 59 214 0.0 3.0 0.00 0.00 0.00 1 1016.2
20260502182519 58 252 0.0 2.0 0.00 0.00 0.00 1 1016.1
20260502182017 56 244 0.0 4.0 0.00 0.00 0.00 1 1016.2
20260502181518 55 85 0.0 4.0 0.00 0.00 0.00 1 1016.1
20260502181019 55 221 1.0 4.0 0.00 0.00 0.00 1 1016.2
20260502180558 54 233 0.0 1.0 0.00 0.00 0.00 1 1016.1
20260502170520 53 11 0.0 1.0 0.00 0.00 0.00 1 1016.7
20260502164021 53 22 0.0 1.0 0.00 0.00 0.00 1 1016.8
20260502163502 52 283 0.0 0.0 0.00 0.00 0.00 1 1016.8
20260502163001 52 301 0.0 0.0 0.00 0.00 0.00 1 1016.7
20260502162501 52 205 0.0 0.0 0.00 0.00 0.00 1 1016.8
20260502162003 52 53 0.0 1.0 0.00 0.00 0.00 1 1016.7
20260502161501 52 67 0.0 1.0 0.00 0.00 0.00 1 1016.8
20260502161003 52 86 0.0 2.0 0.00 0.00 0.00 1 1016.8
20260502160542 52 240 0.0 2.0 0.00 0.00 0.00 1 1016.8
20260502152023 51 233 0.0 0.0 0.00 0.00 0.00 1 1016.7
20260502151522 51 346 0.0 0.0 0.00 0.00 0.00 1 1016.7
20260502151025 51 346 0.0 0.0 0.00 0.00 0.00 1 1016.7
20260502150508 51 346 0.0 0.0 0.00 0.00 0.00 1 1016.7
20260502130555 0 0.0 0.0 0.00 0.00 0.00 1016.2
20260502123544 0 0.0 0.0 0.00 0.00 0.00 1016.3
20260502123057 0 0.0 0.0 0.00 0.00 0.00 1016.5
20260502122542 0 0.0 0.0 0.00 0.00 0.00 1016.5
20260502122043 0 0.0 0.0 0.00 0.00 0.00 1016.6
20260502121543 0 0.0 0.0 0.00 0.00 0.00 1016.5
20260502121043 0 0.0 0.0 0.00 0.00 0.00 1016.6
20260502120542 0 0.0 0.0 0.00 0.00 0.00 1016.6
20260502115541 0 0.0 0.0 0.00 0.00 0.00 1016.9
20260502115041 0 0.0 0.0 0.00 0.00 0.00 1016.9
20260502114545 0 0.0 0.0 0.00 0.00 0.00 1016.9
20260502114043 0 0.0 0.0 0.00 0.00 0.00 1017.1
20260502113541 0 0.0 0.0 0.00 0.00 0.00 1016.9
20260502113024 0 0.0 0.0 0.00 0.00 0.00 1016.8
20260502112523 0 0.0 0.0 0.00 0.00 0.00 1016.9
20260502112023 0 0.0 0.0 0.00 0.00 0.00 1016.8
20260502111523 0 0.0 0.0 0.00 0.00 0.00 1017.0
20260502111023 0 0.0 0.0 0.00 0.00 0.00 1017.0
20260502110523 0 0.0 0.0 0.00 0.00 0.00 1016.9
20260502110006 0 0.0 0.0 0.00 0.00 0.00 1016.9
20260502105509 0 0.0 0.0 0.00 0.00 0.00 1016.8
20260502105008 0 0.0 0.0 0.00 0.00 0.00 1016.9
20260502104506 0 0.0 0.0 0.00 0.00 0.00 1016.9
20260502104005 0 0.0 0.0 0.00 0.00 0.00 1017.0
20260502103505 0 0.0 0.0 0.00 0.00 0.00 1016.9
20260502103055 0 0.0 0.0 0.00 0.00 0.00 1016.9
20260502102550 0 0.0 0.0 0.00 0.00 0.00 1017.0
20260502102047 0 0.0 0.0 0.00 0.00 0.00 1017.0
20260502101609 0 0.0 0.0 0.00 0.00 0.00 1017.1
20260502101047 0 0.0 0.0 0.00 0.00 0.00 1017.1
20260502100547 0 0.0 0.0 0.00 0.00 0.00 1017.0
20260502091511 0 0.0 0.0 0.00 0.00 0.00 1017.1
20260502091010 0 0.0 0.0 0.00 0.00 0.00 1017.2
20260502090511 0 0.0 0.0 0.00 0.00 0.00 1017.1
20260502071043 0 0.0 0.0 0.00 0.00 0.00 1017.4
20260502070541 0 0.0 0.0 0.00 0.00 0.00 1017.4
20260502070031 0 0.0 0.0 0.00 0.00 0.00 1017.4
20260502065521 0 0.0 0.0 0.00 0.00 0.00 1017.3
20260502065019 0 0.0 0.0 0.00 0.00 0.00 1017.4
20260502064518 0 0.0 0.0 0.00 0.00 0.00 1017.4
20260502064017 0 0.0 0.0 0.00 0.00 0.00 1017.4
20260502063515 0 0.0 0.0 0.00 0.00 0.00 1017.3
20260502063057 0 0.0 0.0 0.00 0.00 0.00 1017.2
20260502062555 51 217 0.0 1.0 0.00 0.00 0.00 1 1017.2
20260502062054 51 217 0.0 1.0 0.00 0.00 0.00 1 1017.3
20260502061553 51 217 0.0 1.0 0.00 0.00 0.00 1 1017.3
20260502061051 52 217 0.0 1.0 0.00 0.00 0.00 1 1017.4
20260502060550 52 255 0.0 1.0 0.00 0.00 0.00 1 1017.4
20260502060033 52 290 0.0 0.0 0.00 0.00 0.00 1 1017.5
20260502055533 52 290 0.0 1.0 0.00 0.00 0.00 1 1017.4
20260502055030 52 278 0.0 2.0 0.00 0.00 0.00 1 1017.4
20260502054528 52 304 0.0 2.0 0.00 0.00 0.00 1 1017.4
20260502054026 52 243 0.0 1.0 0.00 0.00 0.00 1 1017.3
20260502053528 52 222 0.0 1.0 0.00 0.00 0.00 1 1017.4
20260502053006 52 85 0.0 1.0 0.00 0.00 0.00 1 1017.4
20260502052509 52 106 0.0 4.0 0.00 0.00 0.00 1 1017.3
20260502052004 52 310 0.0 5.0 0.00 0.00 0.00 1 1017.3
20260502051507 52 231 0.0 1.0 0.00 0.00 0.00 1 1017.3
20260502051002 52 285 0.0 2.0 0.00 0.00 0.00 1 1017.3
20260502050601 52 295 0.0 2.0 0.00 0.00 0.00 1 1017.4
20260502050059 52 273 0.0 1.0 0.00 0.00 0.00 1 1017.3
20260502045540 52 257 0.0 1.0 0.00 0.00 0.00 1 1017.4
20260502045039 52 236 0.0 1.0 0.00 0.00 0.00 1 1017.3
20260502044537 52 242 0.0 1.0 0.00 0.00 0.00 1 1017.4
20260502044037 52 288 0.0 2.0 0.00 0.00 0.00 1 1017.4
20260502043534 52 324 0.0 3.0 0.00 0.00 0.00 1 1017.4
20260502043034 52 81 0.0 0.0 0.00 0.00 0.00 1 1017.3
20260502042519 52 222 0.0 0.0 0.00 0.00 0.00 1 1017.3
20260502042018 52 295 0.0 1.0 0.00 0.00 0.00 1 1017.3
20260502041517 52 70 0.0 2.0 0.00 0.00 0.00 1 1017.2
20260502041015 52 267 0.0 3.0 0.00 0.00 0.00 1 1017.3
20260502040513 52 122 0.0 3.0 0.00 0.00 0.00 1 1017.1
20260502040017 52 238 0.0 1.0 0.00 0.00 0.00 1 1017.1
20260502035511 52 217 0.0 1.0 0.00 0.00 0.00 1 1017.0
20260502035011 52 266 0.0 1.0 0.00 0.00 0.00 1 1016.9
20260502034508 52 356 0.0 1.0 0.00 0.00 0.00 1 1016.8
20260502034008 52 249 0.0 1.0 0.00 0.00 0.00 1 1016.9
20260502033504 52 204 0.0 2.0 0.00 0.00 0.00 1 1016.9
20260502033005 52 278 0.0 2.0 0.00 0.00 0.00 1 1016.9
20260502032501 53 215 0.0 2.0 0.00 0.00 0.00 1 1016.9
20260502032100 53 266 0.0 1.0 0.00 0.00 0.00 1 1016.8
20260502031600 53 285 0.0 2.0 0.00 0.00 0.00 1 1016.7
20260502031059 53 310 0.0 1.0 0.00 0.00 0.00 1 1016.7
20260502030555 53 277 0.0 1.0 0.00 0.00 0.00 1 1016.7
20260502030100 53 249 0.0 1.0 0.00 0.00 0.00 1 1016.7
20260502025553 53 58 0.0 1.0 0.00 0.00 0.00 1 1016.6
20260502025050 53 235 0.0 1.0 0.00 0.00 0.00 1 1016.6
20260502024549 53 290 0.0 1.0 0.00 0.00 0.00 1 1016.6
20260502024048 53 239 0.0 1.0 0.00 0.00 0.00 1 1016.6
20260502023551 53 282 0.0 1.0 0.00 0.00 0.00 1 1016.7
20260502023104 53 309 0.0 1.0 0.00 0.00 0.00 1 1016.6
20260502022528 53 203 0.0 1.0 0.00 0.00 0.00 1 1016.6
20260502022024 53 242 0.0 3.0 0.00 0.00 0.00 1 1016.6
20260502021522 53 96 0.0 3.0 0.00 0.00 0.00 1 1016.5
20260502021023 53 121 0.0 3.0 0.00 0.00 0.00 1 1016.5
20260502020519 53 224 0.0 3.0 0.00 0.00 0.00 1 1016.5
20260502020018 53 246 0.0 1.0 0.00 0.00 0.00 1 1016.6
20260502015600 53 274 0.0 1.0 0.00 0.00 0.00 1 1016.6
20260502015100 53 236 0.0 2.0 0.00 0.00 0.00 1 1016.6
20260502014600 53 307 0.0 2.0 0.00 0.00 0.00 1 1016.6
20260502014058 53 294 0.0 2.0 0.00 0.00 0.00 1 1016.6
20260502013553 53 215 0.0 1.0 0.00 0.00 0.00 1 1016.6
20260502013051 53 242 0.0 1.0 0.00 0.00 0.00 1 1016.7
20260502012541 53 316 0.0 2.0 0.00 0.00 0.00 1 1016.7
20260502012033 54 272 0.0 2.0 0.00 0.00 0.00 1 1016.8
20260502011530 54 269 0.0 3.0 0.00 0.00 0.00 1 1016.9
20260502011029 54 219 0.0 3.0 0.00 0.00 0.00 1 1016.7
20260502010531 54 264 0.0 4.0 0.00 0.00 0.00 1 1016.8
20260502010028 54 172 0.0 4.0 0.00 0.00 0.00 1 1016.8
20260502005512 54 297 0.0 4.0 0.00 0.00 0.00 1 1016.9
20260502005011 54 300 0.0 3.0 0.00 0.00 0.00 1 1016.8
20260502004510 54 300 0.0 3.0 0.00 0.00 0.00 1 1016.9
20260502004010 55 246 0.0 3.0 0.00 0.00 0.00 1 1016.8
20260502003508 55 255 0.0 2.0 0.00 0.00 0.00 1 1016.8
20260502003004 55 289 0.0 4.0 0.00 0.00 0.00 1 1016.8
20260502002502 55 326 0.0 3.0 0.00 0.00 0.00 1 1016.8
20260502002002 55 155 0.0 3.0 0.00 0.00 0.00 1 1016.7
20260502001603 55 287 0.0 4.0 0.00 0.00 0.00 1 1016.8
20260502001058 56 276 0.0 4.0 0.00 0.00 0.00 1 1016.8
20260502000557 56 312 0.0 2.0 0.00 0.00 0.00 1 1016.8
20260502000056 56 311 0.0 1.0 0.00 0.00 0.00 1 1016.8
20260501235554 56 293 0.0 1.0 0.00 0.00 0.00 1 1016.9
20260501235053 56 340 0.0 3.0 0.00 0.00 0.00 1 1016.9
20260501234655 56 92 0.0 3.0 0.00 0.00 0.00 1 1016.8
20260501234050 56 335 0.0 5.0 0.00 0.00 0.00 1 1016.9
20260501233549 56 288 0.0 4.0 0.00 0.00 0.00 1 1016.9
20260501233048 56 74 0.0 3.0 0.00 0.00 0.00 1 1016.9
20260501232545 57 126 0.0 3.0 0.00 0.00 0.00 1 1016.9
20260501232043 57 30 0.0 3.0 0.00 0.00 0.00 1 1016.9
20260501231541 57 278 0.0 7.0 0.00 0.00 0.00 1 1017.0
20260501231040 57 232 1.0 7.0 0.00 0.00 0.00 1 1016.9
20260501230539 56 239 0.0 3.0 0.00 0.00 0.00 1 1017.0
20260501230038 56 269 0.0 5.0 0.00 0.00 0.00 1 1017.0
20260501225536 57 108 0.0 2.0 0.00 0.00 0.00 1 1017.1
20260501225016 56 233 0.0 5.0 0.00 0.00 0.00 1 1017.1
20260501224515 57 304 1.0 5.0 0.00 0.00 0.00 1 1017.2
20260501224018 57 292 0.0 3.0 0.00 0.00 0.00 1 1017.3
20260501223512 57 46 1.0 5.0 0.00 0.00 0.00 1 1017.3
20260501223011 57 263 0.0 2.0 0.00 0.00 0.00 1 1017.3
20260501222510 57 257 0.0 5.0 0.00 0.00 0.00 1 1017.4
20260501222051 57 33 0.0 5.0 0.00 0.00 0.00 1 1017.4
20260501221549 57 84 0.0 3.0 0.00 0.00 0.00 1 1017.4
20260501221047 57 249 0.0 6.0 0.00 0.00 0.00 1 1017.5
20260501220546 58 219 1.0 6.0 0.00 0.00 0.00 1 1017.6
20260501220044 58 302 0.0 6.0 0.00 0.00 0.00 1 1017.7
20260501215543 58 315 0.0 6.0 0.00 0.00 0.00 1 1017.6
20260501215025 58 227 0.0 4.0 0.00 0.00 0.00 1 1017.7
20260501214522 58 255 0.0 7.0 0.00 0.00 0.00 1 1017.7
20260501214020 58 54 1.0 8.0 0.00 0.00 0.00 1 1017.8
20260501213519 58 257 0.0 3.0 0.00 0.00 0.00 1 1017.7
20260501213018 57 117 0.0 4.0 0.00 0.00 0.00 1 1017.7
20260501212516 58 298 0.0 7.0 0.00 0.00 0.00 1 1017.8
20260501212059 58 243 0.0 7.0 0.00 0.00 0.00 1 1017.9
20260501211557 58 53 0.0 3.0 0.00 0.00 0.00 1 1017.8
20260501211055 58 108 0.0 3.0 0.00 0.00 0.00 1 1017.9
20260501210554 58 302 0.0 3.0 0.00 0.00 0.00 1 1017.9
20260501210053 58 284 0.0 3.0 0.00 0.00 0.00 1 1017.8
20260501205551 58 250 0.0 4.0 0.00 0.00 0.00 1 1017.8
20260501205032 59 283 0.0 4.0 0.00 0.00 0.00 1 1017.7
20260501204531 59 295 0.0 3.0 0.00 0.00 0.00 1 1017.7
20260501204029 59 281 0.0 2.0 0.00 0.00 0.00 1 1017.7
20260501203527 59 251 0.0 2.0 0.00 0.00 0.00 1 1017.7
20260501203039 59 248 0.0 3.0 0.00 0.00 0.00 1 1017.7